Regional Weather Roundup
Issued by NWS State College, PA

Home | Current Version | Previous Version | Text Only | Print | Product List | Glossary On
Versions: 1 2 3 4 5 6 7 8 9 10 11 12 13 14 15 16 17 18 19 20 21 22 23 24 25 26 27 28 29 30 31 32 33 34 35 36 37 38 39 40 41 42 43 44 45 46 47 48 49 50
000
ASUS41 KCTP 250110
RWRCTP

REGIONAL WEATHER ROUNDUP
NATIONAL WEATHER SERVICE STATE COLLEGE PA
900 PM EDT WED MAY 24 2017

Note: "fair" indicates few or no clouds below 12,000 feet with no
significant weather and/or obstructions to visibility.

* = STATION THAT DOES NOT REPORT PRECIPITATION /E.G. RAIN...SNOW...ETC/
    THUNDER OR FOG.

PAZ002>004-007>009-013>016-020>023-029>032-250200-
WESTERN PENNSYLVANIA

CITY           SKY/WX    TMP DP  RH WIND       PRES   REMARKS
ERIE           LGT RAIN  66  51  58 SE6       29.57R
MEADVILLE      LGT RAIN  60  54  80 VRB6      29.58S
FRANKLIN*      CLOUDY    57  52  82 SE16      29.61R
NEW CASTLE     CLOUDY    59  56  89 E10       29.56F
BEAVER COUNTY  RAIN      59  55  88 E7        29.54F
BUTLER*        CLOUDY    57  55  94 E13       29.56F
PITTSBURGH INT CLOUDY    60  57  89 SE18      29.53F
PITTSBURGH     CLOUDY    58  53  84 E12       29.54F
INDIANA*       CLOUDY    57  55  94 SE9       29.64F
LATROBE        LGT RAIN  57  57 100 SE12      29.57F
WASHINGTON CO* CLOUDY    57  54  88 E8G17     29.55F
$$

PAZ004>006-010>012-017>019-024>028-033>037-041-042-045-046-049>053-250200-
CENTRAL PENNSYLVANIA

CITY           SKY/WX    TMP DP  RH WIND       PRES   REMARKS
BRADFORD       MOCLDY    61  49  64 SE7       29.66R
DUBOIS         LGT RAIN  57  51  80 SE10G23   29.64S
CLEARFIELD     LGT RAIN  61  51  70 VRB6      29.68S
JOHNSTOWN      LGT RAIN  54  53  97 SE12G21   29.65F
ALTOONA        RAIN      59  54  83 S9        29.70R
STATE COLLEGE  CLOUDY    63  50  63 SE15      29.70S
WILLIAMSPORT   CLOUDY    67  51  56 E14G23    29.70R
SELINSGROVE    CLOUDY    66  52  60 SE10      29.72R
FT INDIANTOWN  CLOUDY    65  52  62 E9        29.73R
CAPITAL CITY   CLOUDY    66  53  63 SE10      29.73R
HARRISBURG     CLOUDY    65  56  72 SE10      29.72R
YORK           CLOUDY    63  56  78 SE6       29.72S
$$

PAZ038>040-043-044-047-048-054-055-060>062-067>071-250200-
EASTERN PENNSYLVANIA

CITY           SKY/WX    TMP DP  RH WIND       PRES   REMARKS
SCRANTON       CLOUDY    65  47  52 VRB6      29.75R
MOUNT POCONO   CLOUDY    57  46  66 SE9       29.78S
ALLENTOWN      MOCLDY    65  48  54 SE10      29.77R
QUAKERTOWN*    MOCLDY    63  50  63 SE8       29.79R
READING        CLOUDY    65  51  60 SE9G18    29.75R
LANCASTER      CLOUDY    64  52  64 SE12      29.74R
COATESVILLE    CLOUDY    63  50  63 SE10      29.77F
POTTSTOWN      CLOUDY    62  49  62 VRB3      29.78S
BLUE BELL      CLOUDY    59  48  67 E10       29.79S
DOYLESTOWN     CLOUDY    60  48  64 VRB3      29.78S
WILLOW GROVE   NOT AVBL
NORTH PHILA    CLOUDY    61  51  70 E14       29.80R
PHILADELPHIA   CLOUDY    62  49  62 E12       29.78S
$$




USA.gov is the U.S. government's official web portal to all federal, state and local government web resources and services.